Year,Month,Day,Hour,Minute,Value (Times are PST for temperature in C)
2010,02,21,00,00,1.40
2010,02,21,00,01,1.40
2010,02,21,00,02,1.40
2010,02,21,00,03,1.30
2010,02,21,00,04,1.30
2010,02,21,00,05,1.30
2010,02,21,00,06,1.30
2010,02,21,00,07,1.30
2010,02,21,00,08,1.30
2010,02,21,00,09,1.30
2010,02,21,00,10,1.30
2010,02,21,00,11,1.30
2010,02,21,00,12,1.30
2010,02,21,00,13,1.30
2010,02,21,00,14,1.30
2010,02,21,00,15,1.40
2010,02,21,00,16,1.40
2010,02,21,00,17,1.50
2010,02,21,00,18,1.60
2010,02,21,00,19,1.70
2010,02,21,00,20,1.80
2010,02,21,00,21,2.00
2010,02,21,00,22,2.00
2010,02,21,00,23,2.20
2010,02,21,00,24,2.20
2010,02,21,00,25,2.40
2010,02,21,00,26,2.50
2010,02,21,00,27,2.70
2010,02,21,00,28,2.80
2010,02,21,00,29,2.90
2010,02,21,00,30,2.90
2010,02,21,00,31,2.90
2010,02,21,00,32,2.90
2010,02,21,00,33,2.80
2010,02,21,00,34,2.70
2010,02,21,00,35,2.60
2010,02,21,00,36,2.50
2010,02,21,00,37,2.40
2010,02,21,00,38,2.40
2010,02,21,00,39,2.40
2010,02,21,00,40,2.40
2010,02,21,00,41,2.50
2010,02,21,00,42,2.60
2010,02,21,00,43,2.60
2010,02,21,00,44,2.60
2010,02,21,00,45,2.50
2010,02,21,00,46,2.30
2010,02,21,00,47,2.20
2010,02,21,00,48,2.10
2010,02,21,00,49,1.90
2010,02,21,00,50,1.80
2010,02,21,00,51,1.70
2010,02,21,00,52,1.60
2010,02,21,00,53,1.50
2010,02,21,00,54,1.50
2010,02,21,00,55,1.40
2010,02,21,00,56,1.30
2010,02,21,00,57,1.30
2010,02,21,00,58,1.30
2010,02,21,00,59,1.30
2010,02,21,01,00,1.30
2010,02,21,01,01,1.40
2010,02,21,01,02,1.50
2010,02,21,01,03,1.80
2010,02,21,01,04,2.00
2010,02,21,01,05,2.20
2010,02,21,01,06,2.40
2010,02,21,01,07,2.60
2010,02,21,01,08,2.70
2010,02,21,01,09,2.80
2010,02,21,01,10,2.90
2010,02,21,01,11,3.00
2010,02,21,01,12,3.10
2010,02,21,01,13,3.10
2010,02,21,01,14,3.20
2010,02,21,01,15,3.20
2010,02,21,01,16,3.20
2010,02,21,01,17,3.00
2010,02,21,01,18,2.90
2010,02,21,01,19,2.80
2010,02,21,01,20,2.70
2010,02,21,01,21,2.60
2010,02,21,01,22,2.60
2010,02,21,01,23,2.70
2010,02,21,01,24,2.80
2010,02,21,01,25,2.90
2010,02,21,01,26,3.20
2010,02,21,01,27,3.40
2010,02,21,01,28,3.60
2010,02,21,01,29,3.70
2010,02,21,01,30,3.80
2010,02,21,01,31,3.80
2010,02,21,01,32,3.70
2010,02,21,01,33,3.60
2010,02,21,01,34,3.40
2010,02,21,01,35,3.30
2010,02,21,01,36,3.30
2010,02,21,01,37,3.20
2010,02,21,01,38,3.10
2010,02,21,01,39,3.10
2010,02,21,01,40,3.00
2010,02,21,01,41,2.90
2010,02,21,01,42,2.90
2010,02,21,01,43,2.80
2010,02,21,01,44,2.80
2010,02,21,01,45,2.80
2010,02,21,01,46,2.90
2010,02,21,01,47,2.90
2010,02,21,01,48,2.90
2010,02,21,01,49,3.00
2010,02,21,01,50,3.10
2010,02,21,01,51,3.20
2010,02,21,01,52,3.30
2010,02,21,01,53,3.30
2010,02,21,01,54,3.40
2010,02,21,01,55,3.50
2010,02,21,01,56,3.60
2010,02,21,01,57,3.60
2010,02,21,01,58,3.70
2010,02,21,01,59,3.70
2010,02,21,02,00,3.80
2010,02,21,02,01,3.80
2010,02,21,02,02,3.90
2010,02,21,02,03,4.00
2010,02,21,02,04,4.00
2010,02,21,02,05,4.00
2010,02,21,02,06,4.10
2010,02,21,02,07,4.10
2010,02,21,02,08,4.20
2010,02,21,02,09,4.30
2010,02,21,02,10,4.40
2010,02,21,02,11,4.40
2010,02,21,02,12,4.40
2010,02,21,02,13,4.40
2010,02,21,02,14,4.30
2010,02,21,02,15,4.10
2010,02,21,02,16,3.90
2010,02,21,02,17,3.70
2010,02,21,02,18,3.50
2010,02,21,02,19,3.30
2010,02,21,02,20,3.10
2010,02,21,02,21,3.00
2010,02,21,02,22,2.90
2010,02,21,02,23,2.80
2010,02,21,02,24,2.70
2010,02,21,02,25,2.60
2010,02,21,02,26,2.50
2010,02,21,02,27,2.50
2010,02,21,02,28,2.40
2010,02,21,02,29,2.40
2010,02,21,02,30,2.30
2010,02,21,02,31,2.20
2010,02,21,02,32,2.20
2010,02,21,02,33,2.20
2010,02,21,02,34,2.20
2010,02,21,02,35,2.20
2010,02,21,02,36,2.20
2010,02,21,02,37,2.20
2010,02,21,02,38,2.10
2010,02,21,02,39,2.10
2010,02,21,02,40,2.10
2010,02,21,02,41,2.10
2010,02,21,02,42,2.10
2010,02,21,02,43,2.10
2010,02,21,02,44,2.10
2010,02,21,02,45,2.10
2010,02,21,02,46,2.10
2010,02,21,02,47,2.00
2010,02,21,02,48,2.00
2010,02,21,02,49,2.00
2010,02,21,02,50,2.10
2010,02,21,02,51,2.10
2010,02,21,02,52,2.10
2010,02,21,02,53,2.20
2010,02,21,02,54,2.20
2010,02,21,02,55,2.20
2010,02,21,02,56,2.20
2010,02,21,02,57,2.20
2010,02,21,02,58,2.30
2010,02,21,02,59,2.30
2010,02,21,03,00,2.30
2010,02,21,03,01,2.20
2010,02,21,03,02,2.20
2010,02,21,03,03,2.20
2010,02,21,03,04,2.30
2010,02,21,03,05,2.30
2010,02,21,03,06,2.40
2010,02,21,03,07,2.50
2010,02,21,03,08,2.70
2010,02,21,03,09,2.80
2010,02,21,03,10,2.90
2010,02,21,03,11,2.90
2010,02,21,03,12,2.90
2010,02,21,03,13,3.00
2010,02,21,03,14,3.10
2010,02,21,03,15,3.10
2010,02,21,03,16,3.10
2010,02,21,03,17,2.90
2010,02,21,03,18,2.80
2010,02,21,03,19,2.60
2010,02,21,03,20,2.40
2010,02,21,03,21,2.30
2010,02,21,03,22,2.20
2010,02,21,03,23,2.10
2010,02,21,03,24,2.00
2010,02,21,03,25,2.00
2010,02,21,03,26,1.90
2010,02,21,03,27,1.90
2010,02,21,03,28,2.10
2010,02,21,03,29,2.30
2010,02,21,03,30,2.50
2010,02,21,03,31,2.70
2010,02,21,03,32,2.80
2010,02,21,03,33,2.90
2010,02,21,03,34,3.10
2010,02,21,03,35,3.10
2010,02,21,03,36,3.20
2010,02,21,03,37,3.30
2010,02,21,03,38,3.30
2010,02,21,03,39,3.30
2010,02,21,03,40,3.20
2010,02,21,03,41,3.20
2010,02,21,03,42,3.20
2010,02,21,03,43,3.20
2010,02,21,03,44,3.10
2010,02,21,03,45,3.10
2010,02,21,03,46,3.10
2010,02,21,03,47,3.10
2010,02,21,03,48,3.10
2010,02,21,03,49,3.20
2010,02,21,03,50,3.20
2010,02,21,03,51,3.20
2010,02,21,03,52,3.20
2010,02,21,03,53,3.30
2010,02,21,03,54,3.30
2010,02,21,03,55,3.30
2010,02,21,03,56,3.30
2010,02,21,03,57,3.30
2010,02,21,03,58,3.30
2010,02,21,03,59,3.30
2010,02,21,04,00,3.30
2010,02,21,04,01,3.40
2010,02,21,04,02,3.40
2010,02,21,04,03,3.40
2010,02,21,04,04,3.30
2010,02,21,04,05,3.30
2010,02,21,04,06,3.40
2010,02,21,04,07,3.40
2010,02,21,04,08,3.40
2010,02,21,04,09,3.40
2010,02,21,04,10,3.40
2010,02,21,04,11,3.50
2010,02,21,04,12,3.50
2010,02,21,04,13,3.50
2010,02,21,04,14,3.50
2010,02,21,04,15,3.30
2010,02,21,04,16,3.20
2010,02,21,04,17,3.00
2010,02,21,04,18,2.90
2010,02,21,04,19,2.80
2010,02,21,04,20,2.70
2010,02,21,04,21,2.70
2010,02,21,04,22,2.70
2010,02,21,04,23,2.70
2010,02,21,04,24,2.80
2010,02,21,04,25,2.80
2010,02,21,04,26,2.90
2010,02,21,04,27,3.10
2010,02,21,04,28,3.20
2010,02,21,04,29,3.20
2010,02,21,04,30,3.30
2010,02,21,04,31,3.30
2010,02,21,04,32,3.30
2010,02,21,04,33,3.30
2010,02,21,04,34,3.30
2010,02,21,04,35,3.30
2010,02,21,04,36,3.30
2010,02,21,04,37,3.30
2010,02,21,04,38,3.30
2010,02,21,04,39,3.30
2010,02,21,04,40,3.20
2010,02,21,04,41,3.20
2010,02,21,04,42,3.10
2010,02,21,04,43,3.10
2010,02,21,04,44,3.20
2010,02,21,04,45,3.20
2010,02,21,04,46,3.20
2010,02,21,04,47,3.20
2010,02,21,04,48,3.20
2010,02,21,04,49,3.20
2010,02,21,04,50,3.20
2010,02,21,04,51,3.30
2010,02,21,04,52,3.30
2010,02,21,04,53,3.30
2010,02,21,04,54,3.30
2010,02,21,04,55,3.30
2010,02,21,04,56,3.30
2010,02,21,04,57,3.30
2010,02,21,04,58,3.30
2010,02,21,04,59,3.30
2010,02,21,05,00,3.20
2010,02,21,05,01,3.20
2010,02,21,05,02,3.20
2010,02,21,05,03,3.10
2010,02,21,05,04,3.10
2010,02,21,05,05,3.10
2010,02,21,05,06,3.10
2010,02,21,05,07,3.10
2010,02,21,05,08,3.10
2010,02,21,05,09,3.10
2010,02,21,05,10,3.10
2010,02,21,05,11,3.10
2010,02,21,05,12,3.10
2010,02,21,05,13,3.20
2010,02,21,05,14,3.20
2010,02,21,05,15,3.30
2010,02,21,05,16,3.30
2010,02,21,05,17,3.30
2010,02,21,05,18,3.40
2010,02,21,05,19,3.50
2010,02,21,05,20,3.50
2010,02,21,05,21,3.60
2010,02,21,05,22,3.70
2010,02,21,05,23,3.80
2010,02,21,05,24,3.80
2010,02,21,05,25,3.80
2010,02,21,05,26,3.80
2010,02,21,05,27,3.80
2010,02,21,05,28,3.80
2010,02,21,05,29,3.80
2010,02,21,05,30,3.80
2010,02,21,05,31,3.80
2010,02,21,05,32,3.80
2010,02,21,05,33,3.90
2010,02,21,05,34,3.90
2010,02,21,05,35,4.00
2010,02,21,05,36,4.00
2010,02,21,05,37,4.00
2010,02,21,05,38,4.00
2010,02,21,05,39,4.10
2010,02,21,05,40,4.00
2010,02,21,05,41,4.00
2010,02,21,05,42,4.00
2010,02,21,05,43,4.00
2010,02,21,05,44,4.00
2010,02,21,05,45,3.90
2010,02,21,05,46,3.90
2010,02,21,05,47,3.80
2010,02,21,05,48,3.80
2010,02,21,05,49,3.80
2010,02,21,05,50,3.70
2010,02,21,05,51,3.70
2010,02,21,05,52,3.60
2010,02,21,05,53,3.60
2010,02,21,05,54,3.60
2010,02,21,05,55,3.50
2010,02,21,05,56,3.50
2010,02,21,05,57,3.50
2010,02,21,05,58,3.50
2010,02,21,05,59,3.50
2010,02,21,06,00,3.50
2010,02,21,06,01,3.50
2010,02,21,06,02,3.50
2010,02,21,06,03,3.50
2010,02,21,06,04,3.60
2010,02,21,06,05,3.60
2010,02,21,06,06,3.60
2010,02,21,06,07,3.70
2010,02,21,06,08,3.70
2010,02,21,06,09,3.80
2010,02,21,06,10,3.80
2010,02,21,06,11,3.80
2010,02,21,06,12,3.80
2010,02,21,06,13,3.80
2010,02,21,06,14,3.80
2010,02,21,06,15,3.80
2010,02,21,06,16,3.80
2010,02,21,06,17,3.80
2010,02,21,06,18,3.80
2010,02,21,06,19,3.80
2010,02,21,06,20,3.80
2010,02,21,06,21,3.70
2010,02,21,06,22,3.60
2010,02,21,06,23,3.50
2010,02,21,06,24,3.50
2010,02,21,06,25,3.40
2010,02,21,06,26,3.40
2010,02,21,06,27,3.30
2010,02,21,06,28,3.30
2010,02,21,06,29,3.30
2010,02,21,06,30,3.30
2010,02,21,06,31,3.30
2010,02,21,06,32,3.30
2010,02,21,06,33,3.30
2010,02,21,06,34,3.20
2010,02,21,06,35,3.20
2010,02,21,06,36,3.20
2010,02,21,06,37,3.20
2010,02,21,06,38,3.10
2010,02,21,06,39,3.10
2010,02,21,06,40,3.00
2010,02,21,06,41,2.90
2010,02,21,06,42,2.80
2010,02,21,06,43,2.70
2010,02,21,06,44,2.60
2010,02,21,06,45,2.60
2010,02,21,06,46,2.50
2010,02,21,06,47,2.50
2010,02,21,06,48,2.50
2010,02,21,06,49,2.50
2010,02,21,06,50,2.60
2010,02,21,06,51,2.60
2010,02,21,06,52,2.40
2010,02,21,06,53,2.30
2010,02,21,06,54,2.10
2010,02,21,06,55,2.00
2010,02,21,06,56,1.90
2010,02,21,06,57,1.80
2010,02,21,06,58,1.80
2010,02,21,06,59,1.80
2010,02,21,07,00,1.80
2010,02,21,07,01,1.80
2010,02,21,07,02,1.80
2010,02,21,07,03,1.80
2010,02,21,07,04,1.80
2010,02,21,07,05,1.80
2010,02,21,07,06,1.80
2010,02,21,07,07,1.80
2010,02,21,07,08,1.80
2010,02,21,07,09,1.70
2010,02,21,07,10,1.70
2010,02,21,07,11,1.60
2010,02,21,07,12,1.50
2010,02,21,07,13,1.50
2010,02,21,07,14,1.40
2010,02,21,07,15,1.30
2010,02,21,07,16,1.30
2010,02,21,07,17,1.30
2010,02,21,07,18,1.30
2010,02,21,07,19,1.30
2010,02,21,07,20,1.40
2010,02,21,07,21,1.60
2010,02,21,07,22,1.80
2010,02,21,07,23,2.00
2010,02,21,07,24,2.20
2010,02,21,07,25,2.30
2010,02,21,07,26,2.50
2010,02,21,07,27,2.70
2010,02,21,07,28,2.70
2010,02,21,07,29,2.80
2010,02,21,07,30,2.90
2010,02,21,07,31,2.90
2010,02,21,07,32,3.00
2010,02,21,07,33,3.10
2010,02,21,07,34,3.10
2010,02,21,07,35,3.10
2010,02,21,07,36,3.10
2010,02,21,07,37,3.10
2010,02,21,07,38,3.10
2010,02,21,07,39,3.00
2010,02,21,07,40,2.80
2010,02,21,07,41,2.60
2010,02,21,07,42,2.40
2010,02,21,07,43,2.30
2010,02,21,07,44,2.20
2010,02,21,07,45,2.20
2010,02,21,07,46,2.30
2010,02,21,07,47,2.30
2010,02,21,07,48,2.30
2010,02,21,07,49,2.40
2010,02,21,07,50,2.50
2010,02,21,07,51,2.50
2010,02,21,07,52,2.70
2010,02,21,07,53,2.90
2010,02,21,07,54,3.00
2010,02,21,07,55,3.20
2010,02,21,07,56,3.30
2010,02,21,07,57,3.30
2010,02,21,07,58,3.40
2010,02,21,07,59,3.50
2010,02,21,08,00,3.60
2010,02,21,08,01,3.70
2010,02,21,08,02,3.80
2010,02,21,08,03,3.80
2010,02,21,08,04,3.90
2010,02,21,08,05,3.90
2010,02,21,08,06,4.00
2010,02,21,08,07,4.00
2010,02,21,08,08,4.00
2010,02,21,08,09,4.10
2010,02,21,08,10,4.10
2010,02,21,08,11,4.20
2010,02,21,08,12,4.20
2010,02,21,08,13,4.20
2010,02,21,08,14,4.20
2010,02,21,08,15,4.20
2010,02,21,08,16,4.20
2010,02,21,08,17,4.20
2010,02,21,08,18,4.20
2010,02,21,08,19,4.30
2010,02,21,08,20,4.30
2010,02,21,08,21,4.30
2010,02,21,08,22,4.40
2010,02,21,08,23,4.40
2010,02,21,08,24,4.40
2010,02,21,08,25,4.50
2010,02,21,08,26,4.50
2010,02,21,08,27,4.50
2010,02,21,08,28,4.60
2010,02,21,08,29,4.60
2010,02,21,08,30,4.60
2010,02,21,08,31,4.70
2010,02,21,08,32,4.70
2010,02,21,08,33,4.80
2010,02,21,08,34,4.80
2010,02,21,08,35,4.90
2010,02,21,08,36,4.90
2010,02,21,08,37,4.90
2010,02,21,08,38,5.00
2010,02,21,08,39,5.10
2010,02,21,08,40,5.10
2010,02,21,08,41,5.10
2010,02,21,08,42,5.10
2010,02,21,08,43,5.10
2010,02,21,08,44,5.20
2010,02,21,08,45,5.20
2010,02,21,08,46,5.20
2010,02,21,08,47,5.20
2010,02,21,08,48,5.20
2010,02,21,08,49,5.20
2010,02,21,08,50,5.30
2010,02,21,08,51,5.30
2010,02,21,08,52,5.30
2010,02,21,08,53,5.40
2010,02,21,08,54,5.50
2010,02,21,08,55,5.50
2010,02,21,08,56,5.60
2010,02,21,08,57,5.60
2010,02,21,08,58,5.70
2010,02,21,08,59,5.70
2010,02,21,09,00,5.70
2010,02,21,09,01,5.70
2010,02,21,09,02,5.70
2010,02,21,09,03,5.70
2010,02,21,09,04,5.70
2010,02,21,09,05,5.80
2010,02,21,09,06,5.80
2010,02,21,09,07,5.90
2010,02,21,09,08,5.90
2010,02,21,09,09,6.00
2010,02,21,09,10,6.00
2010,02,21,09,11,6.10
2010,02,21,09,12,6.10
2010,02,21,09,13,6.20
2010,02,21,09,14,6.20
2010,02,21,09,15,6.20
2010,02,21,09,16,6.20
2010,02,21,09,17,6.30
2010,02,21,09,18,6.30
2010,02,21,09,19,6.40
2010,02,21,09,20,6.40
2010,02,21,09,21,6.50
2010,02,21,09,22,6.60
2010,02,21,09,23,6.60
2010,02,21,09,24,6.70
2010,02,21,09,25,6.70
2010,02,21,09,26,6.80
2010,02,21,09,27,6.80
2010,02,21,09,28,6.90
2010,02,21,09,29,7.00
2010,02,21,09,30,7.10
2010,02,21,09,31,7.10
2010,02,21,09,32,7.20
2010,02,21,09,33,7.30
2010,02,21,09,34,7.40
2010,02,21,09,35,7.40
2010,02,21,09,36,7.50
2010,02,21,09,37,7.50
2010,02,21,09,38,7.60
2010,02,21,09,39,7.70
2010,02,21,09,40,7.80
2010,02,21,09,41,7.80
2010,02,21,09,42,7.80
2010,02,21,09,43,7.80
2010,02,21,09,44,7.80
2010,02,21,09,45,7.80
2010,02,21,09,46,7.80
2010,02,21,09,47,7.90
2010,02,21,09,48,7.90
2010,02,21,09,49,7.90
2010,02,21,09,50,7.90
2010,02,21,09,51,7.90
2010,02,21,09,52,8.00
2010,02,21,09,53,8.00
2010,02,21,09,54,8.10
2010,02,21,09,55,8.10
2010,02,21,09,56,8.10
2010,02,21,09,57,8.10
2010,02,21,09,58,8.10
2010,02,21,09,59,8.20
2010,02,21,10,00,8.20
2010,02,21,10,01,8.30
2010,02,21,10,02,8.30
2010,02,21,10,03,8.30
2010,02,21,10,04,8.30
2010,02,21,10,05,8.40
2010,02,21,10,06,8.40
2010,02,21,10,07,8.40
2010,02,21,10,08,8.40
2010,02,21,10,09,8.40
2010,02,21,10,10,8.40
2010,02,21,10,11,8.50
2010,02,21,10,12,8.50
2010,02,21,10,13,8.50
2010,02,21,10,14,8.50
2010,02,21,10,15,8.50
2010,02,21,10,16,8.60
2010,02,21,10,17,8.60
2010,02,21,10,18,8.60
2010,02,21,10,19,8.60
2010,02,21,10,20,8.70
2010,02,21,10,21,8.70
2010,02,21,10,22,8.70
2010,02,21,10,23,8.80
2010,02,21,10,24,8.90
2010,02,21,10,25,8.90
2010,02,21,10,26,9.00
2010,02,21,10,27,9.00
2010,02,21,10,28,9.00
2010,02,21,10,29,9.10
2010,02,21,10,30,9.10
2010,02,21,10,31,9.10
2010,02,21,10,32,9.10
2010,02,21,10,33,9.20
2010,02,21,10,34,9.20
2010,02,21,10,35,9.20
2010,02,21,10,36,9.20
2010,02,21,10,37,9.20
2010,02,21,10,38,9.20
2010,02,21,10,39,9.20
2010,02,21,10,40,9.20
2010,02,21,10,41,9.20
2010,02,21,10,42,9.20
2010,02,21,10,43,9.20
2010,02,21,10,44,9.30
2010,02,21,10,45,9.30
2010,02,21,10,46,9.40
2010,02,21,10,47,9.40
2010,02,21,10,48,9.30
2010,02,21,10,49,9.30
2010,02,21,10,50,9.30
2010,02,21,10,51,9.40
2010,02,21,10,52,9.40
2010,02,21,10,53,9.40
2010,02,21,10,54,9.40
2010,02,21,10,55,9.40
2010,02,21,10,56,9.40
2010,02,21,10,57,9.40
2010,02,21,10,58,9.40
2010,02,21,10,59,9.40
2010,02,21,11,00,9.40
2010,02,21,11,01,9.40
2010,02,21,11,02,9.40
2010,02,21,11,03,9.40
2010,02,21,11,04,9.40
2010,02,21,11,05,9.40
2010,02,21,11,06,9.40
2010,02,21,11,07,9.40
2010,02,21,11,08,9.40
2010,02,21,11,09,9.40
2010,02,21,11,10,9.50
2010,02,21,11,11,9.50
2010,02,21,11,12,9.60
2010,02,21,11,13,9.60
2010,02,21,11,14,9.60
2010,02,21,11,15,9.60
2010,02,21,11,16,9.50
2010,02,21,11,17,9.50
2010,02,21,11,18,9.40
2010,02,21,11,19,9.40
2010,02,21,11,20,9.30
2010,02,21,11,21,9.40
2010,02,21,11,22,9.40
2010,02,21,11,23,9.50
2010,02,21,11,24,9.60
2010,02,21,11,25,9.70
2010,02,21,11,26,9.70
2010,02,21,11,27,9.70
2010,02,21,11,28,9.70
2010,02,21,11,29,9.70
2010,02,21,11,30,9.70
2010,02,21,11,31,9.70
2010,02,21,11,32,9.70
2010,02,21,11,33,9.70
2010,02,21,11,34,9.70
2010,02,21,11,35,9.70
2010,02,21,11,36,9.70
2010,02,21,11,37,9.70
2010,02,21,11,38,9.70
2010,02,21,11,39,9.70
2010,02,21,11,40,9.70
2010,02,21,11,41,9.70
2010,02,21,11,42,9.70
2010,02,21,11,43,9.70
2010,02,21,11,44,9.70
2010,02,21,11,45,9.70
2010,02,21,11,46,9.70
2010,02,21,11,47,9.60
2010,02,21,11,48,9.60
2010,02,21,11,49,9.60
2010,02,21,11,50,9.60
2010,02,21,11,51,9.60
2010,02,21,11,52,9.70
2010,02,21,11,53,9.70
2010,02,21,11,54,9.80
2010,02,21,11,55,9.90
2010,02,21,11,56,9.90
2010,02,21,11,57,9.90
2010,02,21,11,58,9.90
2010,02,21,11,59,10.00
2010,02,21,12,00,10.10
2010,02,21,12,01,10.10
2010,02,21,12,02,10.10
2010,02,21,12,03,10.20
2010,02,21,12,04,10.30
2010,02,21,12,05,10.40
2010,02,21,12,06,10.40
2010,02,21,12,07,10.50
2010,02,21,12,08,10.60
2010,02,21,12,09,10.60
2010,02,21,12,10,10.60
2010,02,21,12,11,10.70
2010,02,21,12,12,10.80
2010,02,21,12,13,10.90
2010,02,21,12,14,10.90
2010,02,21,12,15,10.90
2010,02,21,12,16,10.90
2010,02,21,12,17,10.90
2010,02,21,12,18,11.00
2010,02,21,12,19,11.10
2010,02,21,12,20,11.10
2010,02,21,12,21,11.10
2010,02,21,12,22,11.10
2010,02,21,12,23,11.20
2010,02,21,12,24,11.20
2010,02,21,12,25,11.20
2010,02,21,12,26,11.20
2010,02,21,12,27,11.10
2010,02,21,12,28,11.10
2010,02,21,12,29,11.10
2010,02,21,12,30,11.10
2010,02,21,12,31,11.10
2010,02,21,12,32,11.10
2010,02,21,12,33,11.10
2010,02,21,12,34,11.10
2010,02,21,12,35,11.10
2010,02,21,12,36,11.10
2010,02,21,12,37,11.10
2010,02,21,12,38,11.20
2010,02,21,12,39,11.20
2010,02,21,12,40,11.20
2010,02,21,12,41,11.20
2010,02,21,12,42,11.20
2010,02,21,12,43,11.20
2010,02,21,12,44,11.20
2010,02,21,12,45,11.20
2010,02,21,12,46,11.10
2010,02,21,12,47,11.10
2010,02,21,12,48,11.20
2010,02,21,12,49,11.20
2010,02,21,12,50,11.30
2010,02,21,12,51,11.30
2010,02,21,12,52,11.40
2010,02,21,12,53,11.40
2010,02,21,12,54,11.40
2010,02,21,12,55,11.50
2010,02,21,12,56,11.60
2010,02,21,12,57,11.60
2010,02,21,12,58,11.60
2010,02,21,12,59,11.60
2010,02,21,13,00,11.60
2010,02,21,13,01,11.60
2010,02,21,13,02,11.60
2010,02,21,13,03,11.60
2010,02,21,13,04,11.60
2010,02,21,13,05,11.60
2010,02,21,13,06,11.60
2010,02,21,13,07,11.60
2010,02,21,13,08,11.60
2010,02,21,13,09,11.70
2010,02,21,13,10,11.80
2010,02,21,13,11,11.80
2010,02,21,13,12,11.80
2010,02,21,13,13,11.80
2010,02,21,13,14,11.70
2010,02,21,13,15,11.70
2010,02,21,13,16,11.70
2010,02,21,13,17,11.70
2010,02,21,13,18,11.70
2010,02,21,13,19,11.80
2010,02,21,13,20,11.80
2010,02,21,13,21,11.80
2010,02,21,13,22,11.80
2010,02,21,13,23,11.80
2010,02,21,13,24,11.80
2010,02,21,13,25,11.80
2010,02,21,13,26,11.80
2010,02,21,13,27,11.70
2010,02,21,13,28,11.70
2010,02,21,13,29,11.60
2010,02,21,13,30,11.60
2010,02,21,13,31,11.70
2010,02,21,13,32,11.80
2010,02,21,13,33,11.80
2010,02,21,13,34,11.80
2010,02,21,13,35,11.80
2010,02,21,13,36,11.80
2010,02,21,13,37,11.90
2010,02,21,13,38,12.00
2010,02,21,13,39,12.00
2010,02,21,13,40,12.10
2010,02,21,13,41,12.20
2010,02,21,13,42,12.30
2010,02,21,13,43,12.30
2010,02,21,13,44,12.30
2010,02,21,13,45,12.30
2010,02,21,13,46,12.20
2010,02,21,13,47,12.10
2010,02,21,13,48,12.10
2010,02,21,13,49,12.00
2010,02,21,13,50,12.00
2010,02,21,13,51,11.90
2010,02,21,13,52,11.90
2010,02,21,13,53,12.00
2010,02,21,13,54,12.00
2010,02,21,13,55,12.10
2010,02,21,13,56,12.20
2010,02,21,13,57,12.30
2010,02,21,13,58,12.30
2010,02,21,13,59,12.40
2010,02,21,14,00,12.40
2010,02,21,14,01,12.50
2010,02,21,14,02,12.60
2010,02,21,14,03,12.60
2010,02,21,14,04,12.70
2010,02,21,14,05,12.70
2010,02,21,14,06,12.80
2010,02,21,14,07,12.80
2010,02,21,14,08,12.80
2010,02,21,14,09,12.60
2010,02,21,14,10,12.30
2010,02,21,14,11,12.00
2010,02,21,14,12,11.70
2010,02,21,14,13,11.60
2010,02,21,14,14,11.60
2010,02,21,14,15,11.60
2010,02,21,14,16,11.60
2010,02,21,14,17,11.60
2010,02,21,14,18,11.60
2010,02,21,14,19,11.60
2010,02,21,14,20,11.60
2010,02,21,14,21,11.60
2010,02,21,14,22,11.60
2010,02,21,14,23,11.60
2010,02,21,14,24,11.50
2010,02,21,14,25,11.40
2010,02,21,14,26,11.40
2010,02,21,14,27,11.50
2010,02,21,14,28,11.40
2010,02,21,14,29,11.40
2010,02,21,14,30,11.40
2010,02,21,14,31,11.50
2010,02,21,14,32,11.60
2010,02,21,14,33,11.60
2010,02,21,14,34,11.40
2010,02,21,14,35,11.60
2010,02,21,14,36,11.60
2010,02,21,14,37,11.60
2010,02,21,14,38,11.70
2010,02,21,14,39,11.70
2010,02,21,14,40,11.70
2010,02,21,14,41,11.80
2010,02,21,14,42,11.80
2010,02,21,14,43,11.80
2010,02,21,14,44,11.80
2010,02,21,14,45,11.80
2010,02,21,14,46,11.80
2010,02,21,14,47,11.80
2010,02,21,14,48,11.70
2010,02,21,14,49,11.70
2010,02,21,14,50,11.60
2010,02,21,14,51,11.60
2010,02,21,14,52,11.70
2010,02,21,14,53,11.80
2010,02,21,14,54,11.90
2010,02,21,14,55,12.00
2010,02,21,14,56,12.10
2010,02,21,14,57,12.20
2010,02,21,14,58,12.20
2010,02,21,14,59,12.10
2010,02,21,15,00,12.10
2010,02,21,15,01,12.10
2010,02,21,15,02,12.00
2010,02,21,15,03,11.80
2010,02,21,15,04,11.80
2010,02,21,15,05,11.80
2010,02,21,15,06,11.80
2010,02,21,15,07,11.80
2010,02,21,15,08,11.80
2010,02,21,15,09,11.80
2010,02,21,15,10,11.80
2010,02,21,15,11,11.70
2010,02,21,15,12,11.60
2010,02,21,15,13,11.60
2010,02,21,15,14,11.50
2010,02,21,15,15,11.40
2010,02,21,15,16,11.40
2010,02,21,15,17,11.40
2010,02,21,15,18,11.50
2010,02,21,15,19,11.50
2010,02,21,15,20,11.40
2010,02,21,15,21,11.30
2010,02,21,15,22,11.30
2010,02,21,15,23,11.20
2010,02,21,15,24,11.10
2010,02,21,15,25,11.10
2010,02,21,15,26,11.10
2010,02,21,15,27,11.10
2010,02,21,15,28,11.20
2010,02,21,15,29,11.30
2010,02,21,15,30,11.40
2010,02,21,15,31,11.40
2010,02,21,15,32,11.50
2010,02,21,15,33,11.60
2010,02,21,15,34,11.60
2010,02,21,15,35,11.60
2010,02,21,15,36,11.70
2010,02,21,15,37,11.70
2010,02,21,15,38,11.70
2010,02,21,15,39,11.60
2010,02,21,15,40,11.60
2010,02,21,15,41,11.60
2010,02,21,15,42,11.60
2010,02,21,15,43,11.50
2010,02,21,15,44,11.40
2010,02,21,15,45,11.40
2010,02,21,15,46,11.30
2010,02,21,15,47,11.30
2010,02,21,15,48,11.20
2010,02,21,15,49,11.20
2010,02,21,15,50,11.20
2010,02,21,15,51,11.20
2010,02,21,15,52,11.10
2010,02,21,15,53,11.20
2010,02,21,15,54,11.20
2010,02,21,15,55,11.20
2010,02,21,15,56,11.20
2010,02,21,15,57,11.20
2010,02,21,15,58,11.10
2010,02,21,15,59,10.90
2010,02,21,16,00,10.80
2010,02,21,16,01,10.80
2010,02,21,16,02,10.80
2010,02,21,16,03,10.80
2010,02,21,16,04,10.90
2010,02,21,16,05,10.90
2010,02,21,16,06,10.90
2010,02,21,16,07,10.90
2010,02,21,16,08,10.90
2010,02,21,16,09,10.90
2010,02,21,16,10,10.90
2010,02,21,16,11,10.90
2010,02,21,16,12,11.00
2010,02,21,16,13,11.00
2010,02,21,16,14,10.90
2010,02,21,16,15,10.90
2010,02,21,16,16,10.90
2010,02,21,16,17,10.90
2010,02,21,16,18,10.90
2010,02,21,16,19,10.90
2010,02,21,16,20,10.80
2010,02,21,16,21,10.80
2010,02,21,16,22,10.70
2010,02,21,16,23,10.60
2010,02,21,16,24,10.60
2010,02,21,16,25,10.40
2010,02,21,16,26,10.40
2010,02,21,16,27,10.30
2010,02,21,16,28,10.20
2010,02,21,16,29,10.10
2010,02,21,16,30,10.10
2010,02,21,16,31,10.10
2010,02,21,16,32,10.20
2010,02,21,16,33,10.20
2010,02,21,16,34,10.30
2010,02,21,16,35,10.20
2010,02,21,16,36,10.20
2010,02,21,16,37,10.20
2010,02,21,16,38,10.20
2010,02,21,16,39,10.20
2010,02,21,16,40,10.20
2010,02,21,16,41,10.30
2010,02,21,16,42,10.30
2010,02,21,16,43,10.40
2010,02,21,16,44,10.40
2010,02,21,16,45,10.40
2010,02,21,16,46,10.40
2010,02,21,16,47,10.40
2010,02,21,16,48,10.30
2010,02,21,16,49,10.30
2010,02,21,16,50,10.20
2010,02,21,16,51,10.20
2010,02,21,16,52,10.10
2010,02,21,16,53,10.10
2010,02,21,16,54,10.10
2010,02,21,16,55,10.10
2010,02,21,16,56,10.10
2010,02,21,16,57,10.10
2010,02,21,16,58,10.10
2010,02,21,16,59,10.10
2010,02,21,17,00,9.90
2010,02,21,17,01,9.90
2010,02,21,17,02,9.90
2010,02,21,17,03,9.80
2010,02,21,17,04,9.80
2010,02,21,17,05,9.80
2010,02,21,17,06,9.70
2010,02,21,17,07,9.70
2010,02,21,17,08,9.70
2010,02,21,17,09,9.70
2010,02,21,17,10,9.60
2010,02,21,17,11,9.50
2010,02,21,17,12,9.50
2010,02,21,17,13,9.50
2010,02,21,17,14,9.50
2010,02,21,17,15,9.50
2010,02,21,17,16,9.50
2010,02,21,17,17,9.50
2010,02,21,17,18,9.50
2010,02,21,17,19,9.50
2010,02,21,17,20,9.50
2010,02,21,17,21,9.50
2010,02,21,17,22,9.60
2010,02,21,17,23,9.60
2010,02,21,17,24,9.50
2010,02,21,17,25,9.50
2010,02,21,17,26,9.50
2010,02,21,17,27,9.40
2010,02,21,17,28,9.40
2010,02,21,17,29,9.40
2010,02,21,17,30,9.30
2010,02,21,17,31,9.30
2010,02,21,17,32,9.30
2010,02,21,17,33,9.30
2010,02,21,17,34,9.20
2010,02,21,17,35,9.20
2010,02,21,17,36,9.20
2010,02,21,17,37,9.20
2010,02,21,17,38,9.10
2010,02,21,17,39,9.10
2010,02,21,17,40,9.00
2010,02,21,17,41,9.00
2010,02,21,17,42,8.90
2010,02,21,17,43,8.90
2010,02,21,17,44,8.80
2010,02,21,17,45,8.80
2010,02,21,17,46,8.70
2010,02,21,17,47,8.70
2010,02,21,17,48,8.70
2010,02,21,17,49,8.60
2010,02,21,17,50,8.60
2010,02,21,17,51,8.50
2010,02,21,17,52,8.50
2010,02,21,17,53,8.50